Overview Statistics Trail Chart Weather Telemetry Raw packets
 

This is the latest recevied weather packets stored in our database for station/object W6MAF. If no packets are shown the sender has not sent any weather packets the latest 10 day(s).

<< 21 22 23 24 25 26 27 >>
Time Temp. Humidity Pressure Rain* Wind** Luminosity Snow
1788525341 12.22° C 83% - 0 mm 5.36 m/s, 219° - -
1788525043 12.22° C 83% - 0 mm 6.26 m/s, 226° - -
1788524742 12.22° C 83% - 0 mm 4.92 m/s, 226° - -
1788524445 12.22° C 82% - 0 mm 6.26 m/s, 215° - -
1788524147 12.22° C 82% - 0 mm 6.26 m/s, 231° - -
1788523849 12.22° C 81% - 0 mm 5.36 m/s, 229° - -
1788523552 12.22° C 80% - 0 mm 4.47 m/s, 222° - -
1788523254 12.22° C 80% - 0 mm 5.36 m/s, 205° - -
1788522953 12.22° C 78% - 0 mm 5.81 m/s, 205° - -
1788522655 12.22° C 77% - 0 mm 5.81 m/s, 207° - -
1788522358 12.22° C 76% - 0 mm 6.26 m/s, 215° - -
1788522060 12.22° C 74% - 0 mm 5.81 m/s, 217° - -
1788521465 12.78° C 73% - 0 mm 6.26 m/s, 232° - -
1788521164 12.78° C 72% - 0 mm 5.81 m/s, 228° - -
1788520866 12.78° C 72% - 0 mm 6.71 m/s, 250° - -
1788520568 12.78° C 71% - 0 mm 7.15 m/s, 207° - -
1788520270 12.22° C 70% - 0 mm 4.92 m/s, 225° - -
1788519973 12.78° C 69% - 0 mm 5.81 m/s, 226° - -
1788519675 12.78° C 68% - 0 mm 6.26 m/s, 214° - -
1788519374 12.78° C 66% - 0 mm 5.81 m/s, 215° - -
1788519076 12.78° C 64% - 0 mm 5.81 m/s, 210° - -
1788518779 12.78° C 62% - 0 mm 6.26 m/s, 211° - -
1788518481 12.78° C 59% - 0 mm 4.47 m/s, 207° - -
1788518183 13.33° C 57% - 0 mm 4.92 m/s, 229° - -
1788517886 13.33° C 55% - 0 mm 6.26 m/s, 211° - -

* Rain latest hour (hover to see other rain measurements)
** Current wind speed in m/s (hover to see current wind gust speed)